Tracking 19625 objects as of 26-May-2019
HD Live streaming from Space Station
objects crossing your sky now
Watch Starlink satellites crossing your sky!

SCOUT B-1 R/B

Track SCOUT B-1 R/B now!
10-day predictions


NORAD ID: 6180
Int'l Code: 1972-069B
Perigee: 656.5 km
Apogee: 712.3 km
Inclination: 89.9 °
Period: 98.3 minutes
Semi major axis: 7055 km
RCS: 0.7995 m2 (medium)
Launch date: September 2, 1972
Source: United States (US)
Launch site: AIR FORCE WESTERN TEST RANGE (AFWTR)

Note: This is a ROCKET BODY
aabbcc
Your satellite tracking list
Your tracking list is empty




NASA's NSSDC Master Catalog

Two Line Element Set (TLE):
1  6180U 72069B   19145.79719252 +.00000165 +00000-0 +27761-4 0  9990
2  6180 089.9444 219.8407 0039569 206.4134 153.5066 14.64941084449327
Source of the keplerian elements: AFSPC